Location: Bakhuizen
(52.8696°N, 5.4575°E)
Time: 08:21:39
(UTC+00:00)

Cosmos 1680 Rocket - Pass Details

Date: 11 May 2021
Orbit: 759 x 781 km, 74.1° (Epoch: 20 June)

Event Time Altitude Azimuth Distance (km) Brightness Sun altitude
Rises 22:04:23 0° 331° (NNW) 3,278 8.5 -16.4°
Reaches altitude 10° 22:06:50 10° 327° (NNW) 2,347 7.3 -16.5°
Maximum altitude 22:11:59 52° 252° (WSW) 969 4.0 -16.8°
Enters shadow 22:14:52 25° 188° (S) 1,536 4.6 -16.9°
